Location: Bieujac
(44.5398°N, 0.1549°W)
Time: 12:37:11
(UTC+00:00)

NOSS 3-3 (A) - Pass Details

Date: 24 February 2020
Orbit: 833 x 1379 km, 63.4° (Epoch: 03 April)

Event Time Altitude Azimuth Distance (km) Brightness Sun altitude
Exits shadow 04:06:51 16° 165° (SSE) 2,104 5.7 -29.2°
Maximum altitude 04:10:33 32° 113° (ESE) 1,528 5.4 -28.6°
Drops below altitude 10° 04:16:03 10° 53° (NE) 2,753 7.2 -27.6°
Sets 04:19:03 0° 44° (NE) 3,796 7.9 -27.1°
